TimeEDT,TemperatureF,Dew PointF,Humidity,Sea Level PressureIn,VisibilityMPH,Wind Direction,Wind SpeedMPH,Gust SpeedMPH,PrecipitationIn,Events,Conditions,WindDirDegrees,DateUTC
12:53 AM,82.0,73.9,76,29.96,10.0,South,5.8,-,N/A,,Overcast,170,2014-05-03 04:53:00
1:46 AM,80.1,71.1,74,29.95,10.0,East,3.5,-,N/A,,Mostly Cloudy,90,2014-05-03 05:46:00
1:53 AM,81.0,71.1,72,29.95,10.0,Calm,Calm,-,N/A,,Mostly Cloudy,0,2014-05-03 05:53:00
2:13 AM,81.0,71.1,72,29.95,10.0,Calm,Calm,-,N/A,,Mostly Cloudy,0,2014-05-03 06:13:00
2:31 AM,79.0,71.1,77,29.94,10.0,North,4.6,-,0.01,Rain-Thunderstorm,Light Rain,350,2014-05-03 06:31:00
2:40 AM,79.0,71.1,77,29.95,10.0,Calm,Calm,-,0.01,Rain-Thunderstorm,Light Thunderstorms and Rain,0,2014-05-03 06:40:00
2:53 AM,79.0,72.0,79,29.94,10.0,NW,4.6,-,0.01,Rain-Thunderstorm,Light Rain,320,2014-05-03 06:53:00
3:00 AM,77.0,72.0,84,29.95,8.0,WNW,13.8,20.7,0.01,Rain,Rain,300,2014-05-03 07:00:00
3:07 AM,77.0,72.0,84,29.95,8.0,WNW,10.4,-,0.01,Rain-Thunderstorm,Light Thunderstorms and Rain,290,2014-05-03 07:07:00
3:26 AM,75.0,71.1,87,29.96,3.0,SW,16.1,-,0.11,Rain-Thunderstorm,Heavy Thunderstorms and Rain,220,2014-05-03 07:26:00
3:49 AM,75.2,71.6,89,29.93,8.0,South,3.5,-,0.27,Rain-Thunderstorm,Light Rain,190,2014-05-03 07:49:00
3:53 AM,75.9,71.1,85,29.93,10.0,Calm,Calm,-,0.27,Rain,Light Rain,0,2014-05-03 07:53:00
4:53 AM,78.1,71.1,79,29.93,10.0,SSW,4.6,-,0.01,Rain,Light Rain,200,2014-05-03 08:53:00
5:53 AM,78.1,72.0,81,29.94,10.0,SE,3.5,-,0.01,Rain,Light Rain,140,2014-05-03 09:53:00
6:40 AM,77.0,73.0,88,29.93,10.0,Calm,Calm,-,0.01,Rain,Light Rain,0,2014-05-03 10:40:00
6:53 AM,78.1,73.0,84,29.94,10.0,Calm,Calm,-,0.01,,Partly Cloudy,0,2014-05-03 10:53:00
7:53 AM,80.1,73.9,81,29.93,10.0,SSE,6.9,-,0.00,,Clear,160,2014-05-03 11:53:00
8:53 AM,81.0,75.0,82,29.93,10.0,South,10.4,-,N/A,,Clear,180,2014-05-03 12:53:00
9:53 AM,82.9,75.0,77,29.95,10.0,South,18.4,-,N/A,,Partly Cloudy,180,2014-05-03 13:53:00
10:53 AM,84.0,75.9,76,29.97,10.0,South,12.7,-,N/A,,Clear,190,2014-05-03 14:53:00
11:53 AM,84.0,75.0,74,29.99,10.0,South,15.0,-,N/A,,Partly Cloudy,190,2014-05-03 15:53:00
12:53 PM,84.9,75.0,72,29.99,10.0,SSW,15.0,-,N/A,,Partly Cloudy,210,2014-05-03 16:53:00
1:53 PM,84.9,75.0,72,29.98,10.0,SW,11.5,-,N/A,,Partly Cloudy,230,2014-05-03 17:53:00
2:34 PM,84.9,75.0,72,29.98,10.0,SW,12.7,-,N/A,Thunderstorm,Scattered Clouds,230,2014-05-03 18:34:00
2:49 PM,84.2,75.2,74,29.97,10.0,SW,11.5,-,N/A,,Partly Cloudy,230,2014-05-03 18:49:00
2:53 PM,84.9,75.0,72,29.97,10.0,SW,11.5,-,N/A,,Partly Cloudy,230,2014-05-03 18:53:00
3:53 PM,86.0,75.2,70,29.97,10.0,WSW,13.8,-,N/A,,Partly Cloudy,240,2014-05-03 19:53:00
4:53 PM,86.0,73.9,67,29.95,10.0,West,16.1,20.7,N/A,,Partly Cloudy,280,2014-05-03 20:53:00
5:53 PM,81.0,73.9,79,29.96,10.0,NW,17.3,-,N/A,,Scattered Clouds,320,2014-05-03 21:53:00
6:53 PM,81.0,73.0,77,29.96,10.0,NW,11.5,-,N/A,,Clear,310,2014-05-03 22:53:00
7:53 PM,81.0,72.0,74,29.98,10.0,NW,12.7,-,N/A,,Clear,310,2014-05-03 23:53:00
8:53 PM,80.1,72.0,76,29.99,10.0,WNW,10.4,-,N/A,,Clear,290,2014-05-04 00:53:00
9:53 PM,80.1,72.0,76,30.01,10.0,West,6.9,-,N/A,,Partly Cloudy,270,2014-05-04 01:53:00
10:53 PM,79.0,70.0,74,30.04,10.0,West,9.2,-,N/A,,Mostly Cloudy,270,2014-05-04 02:53:00
11:53 PM,80.1,72.0,76,30.04,10.0,NW,6.9,-,N/A,,Scattered Clouds,310,2014-05-04 03:53:00